Regional Weather Roundup
Issued by NWS

Home | Current Version | Previous Version | Graphics & Text | Print | Product List | Glossary On
Versions: 1 2 3 4 5 6 7 8 9 10 11 12 13 14 15 16 17 18 19 20 21 22 23 24 25 26 27
000
ASUS45 KTFX 151910
RWRMT
MONTANA REGIONAL WEATHER ROUNDUP
NATIONAL WEATHER SERVICE GREAT FALLS MT
1200 PM MST MON JAN 15 2018

NOTE: "FAIR" INDICATES FEW OR NO CLOUDS BELOW 12000 FEET WITH NO
SIGNIFICANT WEATHER AND/OR OBSTRUCTIONS TO VISIBILITY.

MTZ001>007-043-152000-
WEST OF THE DIVIDE

CITY           SKY/WX    TMP DP  RH WIND       PRES   REMARKS
KALISPELL      FAIR      29  27  92 CALM      30.44F
MISSOULA       FAIR      38  26  62 E21       30.41F WCI  28
BUTTE          CLOUDY    29  22  75 S13       30.42F WCI  19
MULLAN PASS    PTSUNNY   31  28  89 SE9G21    30.27F WCI  23
ANACONDA         N/A     34  25  69 SE7       30.42F WCI  28
DEER LODGE       N/A     34  28  80 S9        30.43F WCI  26
EUREKA           N/A     34  27  75 MISG      30.48F
HAMILTON         N/A     41  28  60 SE3       30.40F
RONAN            N/A     32  32 100 N5        30.43F FOG
$$

MTZ008-052>055-152000-
SOUTHWEST MONTANA

CITY           SKY/WX    TMP DP  RH WIND       PRES   REMARKS
BOZEMAN        PTSUNNY   28  21  75 N6        30.48F WCI  22
DILLON         CLOUDY    30  24  78 NE6       30.43F WCI  24
ENNIS          CLOUDY    28  27  93 S3        30.48F
W YELLOWSTONE  FAIR      28  16  59 CALM      30.39F
THREE FORKS      N/A     31  25  78 CALM      30.42F
$$

MTZ009-010-012-014-046-048-049-054-152000-
EAST SLOPES AND CENTRAL MONTANA

CITY           SKY/WX    TMP DP  RH WIND       PRES   REMARKS
CUT BANK       CLOUDY    13   9  84 SE14      30.48F WCI  -2
GREAT FALLS    FAIR      18  14  84 E5        30.53F
MALMSTROM AFB  FLURRIES   8   7  96 NE7       30.56F WCI  -4
HELENA           N/A    N/A N/A N/A MISG      30.50F
AUGUSTA        CLOUDY    21  22 100 S8        30.46F WCI  11
BOWMANS CRNR   CLOUDY    22  22  98 SW7       30.45F WCI  14
CHOTEAU          N/A     23  21  93 SE10      30.51F WCI  12
FAIRFIELD      CLOUDY    23  18  81 SE9       30.50F WCI  13
POWER          PTSUNNY   13   6  73 SE5       30.52F
RAYNESFORD     FAIR      21  18  89 SE12      30.51F WCI   9
ULM            FAIR      24  22  92 NW3       30.52F
WHITE SULPHUR    N/A     21  16  79 S10       30.47F WCI  10
$$

MTZ011-013-016-021-045-047-050-051-152000-
NORTH CENTRAL MONTANA

CITY           SKY/WX    TMP DP  RH WIND       PRES   REMARKS
HAVRE          FAIR     -13 -17  82 NE3       30.71F FOG
LEWISTOWN      FAIR      12   7  80 SE9       30.54F WCI   0
N BAR RANCH    FAIR       7   1  78 CALM      30.57F
CHINOOK          N/A    -13 -18  77 SE5       30.74F
DENTON         FLURRIES   5   2  88 E6        30.55F WCI  -6
GRASS RANGE    FAIR       7   4  89 CALM      30.56F
STANFORD       FAIR      17  16  95 SE8       30.50F WCI   6
WINIFRED       FLURRIES   0  -3  87 E9        30.58F WCI -15
$$

MTZ017>020-022>027-061-062-152000-
NORTHEAST MONTANA

CITY           SKY/WX    TMP DP  RH WIND       PRES   REMARKS
GLASGOW        FAIR     N/A N/A N/A E5        30.82F
GLENDIVE       FAIR      -8 -16  67 CALM      30.84F
MALTA          MOSUNNY  -15 -20  76 E9        30.82F WCI -33
SIDNEY         FAIR      -3 -14  59 CALM      30.90F
WOLF POINT     FAIR      -7 -18  59 CALM      30.89F
PLENTYWOOD       N/A     -9 -17  70 CALM      30.83F
POPLAR           N/A     -9 -20  59 CALM      30.90F
SCOBEY           N/A    -10 -21  58 CALM      30.72F
$$

MTZ028>42-056>058-152000-
SOUTHCENTRAL AND SOUTHEAST MONTANA

CITY           SKY/WX    TMP DP  RH WIND       PRES   REMARKS
BAKER          FAIR     -10 -16  74 W8        30.76F WCI -26
BILLINGS       FAIR       4  -2  76 NE6       30.65F WCI  -7
LIVINGSTON     CLOUDY    22  19  89 E9        30.51F WCI  12
MILES CITY     FAIR     -12 -15  86 S5        30.82F
BIG TIMBER     CLOUDY    16  12  86 E6        30.57F WCI   7
EKALAKA          N/A     -9 -18  64 W5        30.57F
FORSYTH          N/A    -13 -18  77 CALM      30.80F
HARLOWTON      FLURRIES  11   9  92 E6        30.56F WCI   1
LAUREL           N/A      7  -2  66 NE8       30.66F WCI  -6
$$

REGIONAL REPORTS...DAKOTAS

CITY           SKY/WX    TMP DP  RH WIND       PRES   REMARKS
WILLISTON      FAIR      -5 -17  56 CALM      30.89F
MINOT          FAIR      -8 -17  64 NW17      30.84F WCI -31
DICKINSON      FAIR      -7 -15  68 NW17      30.74S WCI -30
BEACH          FAIR      -8 -15  71 W10       30.81F WCI -26
CROSBY         FAIR      -9 -18  64 CALM      30.87F
TIOGA          FAIR      -9 -15  77 NW10      30.83S WCI -28
BISMARCK       FAIR      -5 -16  59 NW12G21   30.81F WCI -23
GRAND FORKS    BLWGSNOW -10 -16  74 N25G36    30.73F VSB 1/2 WCI -38
FARGO          HVY SNOW -10 -15  78 N26G32    30.70F VSB 1/4 WCI -38
BUFFALO SD       N/A     -5 -14  65 NW18      30.64F WCI -28
RAPID CITY     FAIR       3  -7  63 N25G32    30.67F WCI -20
$$

REGIONAL REPORTS...WYOMING/IDAHO/WASHINGTON

CITY           SKY/WX    TMP DP  RH WIND       PRES   REMARKS
GILLETTE         N/A     -1  -6  79 CALM      30.61F
SHERIDAN       FAIR       4  -3  73 CALM      30.64F
BUFFALO WY     FAIR       7   0  73 S5        30.54F
CODY           PTSUNNY   27  15  61 CALM      30.51F
YELLOWSTONE LA   N/A     22  16  78 VRB6      30.37F WCI  14
IDAHO FALLS    FAIR      34  27  75 NE14      30.38F WCI  25
SALMON         CLOUDY    29  26  89 CALM      30.46F
BOISE          FAIR      42  31  64 SE10      30.33F
SPOKANE        FAIR      38  33  82 NE9       30.26F WCI  31
$$

REGIONAL REPORTS...ALBERTA

CITY           SKY/WX    TMP DP  RH WIND       PRES   REMARKS
CALGARY        MOSUNNY   19  16  86 S14       30.33F WCI   6
CARDSTON         N/A     27  19  74 MISG        N/A
EDMONTON       CLOUDY    16   7  67 S15G23    30.39F WCI   1
FORT MCMURRAY  SUNNY      5  -6  61 E9        30.44F WCI  -9
HIGH LEVEL     PTCLDY     7   0  72 S6        30.18F WCI  -3
LETHBRIDGE     MOSUNNY   18  12  79 SE8       30.46F WCI   7
LLOYDMINSTER   MOSUNNY   -2 -13  60 S16       30.58F WCI -23
MEDICINE HAT   MOSUNNY  -13 -18  77 W5        30.62F
MILK RIVER       N/A      9   3  78 S23G30      N/A  WCI -12
PEACE RIVER    MOSUNNY   14   9  79 NW2       30.19F
PINCHER CREEK  CLOUDY    23  21  93 N6        30.38F WCI  16
WATERTON GATE    N/A     28  21  74 N3          N/A
$$

REGIONAL REPORTS...SASKATCHEWAN

CITY           SKY/WX    TMP DP  RH WIND       PRES   REMARKS
CORONACH         N/A     -8 -17  65 S6          N/A  WCI -21
CYPRESS HILLS    N/A     -2 -17  50 S12G17      N/A  WCI -20
ESTEVAN        MOSUNNY   -8 -17  65 W5        30.85F
MOOSE JAW        N/A      0  -9  65 S6          N/A  WCI -12
PRINCE ALBERT  MOSUNNY  -13 -20  70 SW7       30.85F WCI -29
REGINA         MOSUNNY   -6 -15  65 S9        30.83F WCI -22
ROCKGLEN         N/A     -8 -15  71 S8          N/A  WCI -23
SASKATOON      MOSUNNY   -6 -13  71 S10       30.82F WCI -23
SWIFT CURRENT  SUNNY      0 -13  55 S15       30.66F WCI -20
VAL MARIE        N/A    -15 -22  70 E2          N/A
$$




USA.gov is the U.S. government's official web portal to all federal, state and local government web resources and services.